Location: Buch
(49.7331°N, 12.1098°E)
Time: 09:37:48
(UTC+00:00)

Cosmos 2084 Rocket - Pass Details

Date: 12 May 2021
Orbit: 522 x 658 km, 62.8° (Epoch: 13 June)

Event Time Altitude Azimuth Distance (km) Brightness Sun altitude
Rises 21:59:58 0° 313° (NW) 2,775 7.9 -20.3°
Reaches altitude 10° 22:02:12 10° 308° (NW) 1,896 6.8 -20.4°
Maximum altitude 22:06:21 51° 233° (SW) 756 3.8 -20.5°
Enters shadow 22:06:51 48° 209° (SSW) 786 3.7 -20.6°
